User: anonymous   Login
Location: Radford
(37.1320°N, 80.5770°W)
Time: 11:12:23
(UTC-04:00)
Language:

Okean 1-7 - Orbit

View from above orbital plane
View from above orbital plane
View from above satellite
View from above satellite

Ground track
Ground track

The orbit data is extracted from the following two-line orbital elements,

1 23317U 94066A   15181.50673527  .00000378  00000-0  39695-4 0  9996
2 23317 082.5385 072.9234 0018604 287.5517 249.1393 14.86718190119287
Epoch (UTC): 30 June 2015 12:09:41
Eccentricity: 0.0018604
inclination: 82.5385°
perigee height: 595 km
apogee height: 621 km
right ascension of ascending node: 72.9234°
argument of perigee: 287.5517°
revolutions per day: 14.86718190
mean anomaly at epoch: 249.1393°
orbit number at epoch: 11928

The dashed part of the orbit path shows where the satellite is in the earth's shadow,  

DLR